| time (UTC) | temp F | wind direction | speed knots | gust knots | rain 1hr in | rain 24hr in | rain mn in | humidity % | barometer mb |
| 20260906223022 | 68 | 315 | 1.7 | 5.2 | 0.00 | 0.01 | 0.01 | 53 | 1024.1 |
| 20260906222042 | 69 | 315 | 1.7 | 5.2 | 0.00 | 0.01 | 0.01 | 54 | 1024.1 |
| 20260906221022 | 69 | 315 | 2.6 | 4.3 | 0.00 | 0.01 | 0.01 | 54 | 1024.1 |
| 20260906220022 | 70 | 45 | 1.7 | 3.5 | 0.00 | 0.01 | 0.01 | 54 | 1024.2 |
| 20260906215022 | 70 | 45 | 0.9 | 1.7 | 0.00 | 0.01 | 0.01 | 53 | 1024.2 |
| 20260906214022 | 70 | 0 | 1.7 | 3.5 | 0.00 | 0.01 | 0.01 | 54 | 1024.2 |
| 20260906213022 | 71 | 23 | 0.9 | 2.6 | 0.01 | 0.01 | 0.01 | 54 | 1024.5 |
| 20260906212022 | 70 | 45 | 0.9 | 3.5 | 0.01 | 0.01 | 0.01 | 56 | 1024.4 |
| 20260906211022 | 69 | 23 | 1.7 | 4.3 | 0.01 | 0.01 | 0.01 | 55 | 1024.5 |
| 20260906210016 | 68 | 0 | 2.6 | 4.3 | 0.01 | 0.01 | 0.01 | 59 | 1024.6 |
| 20260906205022 | 67 | 68 | 2.6 | 7.0 | 0.01 | 0.01 | 0.01 | 61 | 1024.5 |
| 20260906204022 | 67 | 68 | 2.6 | 5.2 | 0.01 | 0.01 | 0.01 | 68 | 1024.5 |
| 20260906203022 | 69 | 90 | 3.5 | 8.7 | 0.00 | 0.00 | 0.00 | 54 | 1024.6 |
| 20260906202022 | 70 | 68 | 2.6 | 7.8 | 0.00 | 0.00 | 0.00 | 50 | 1025.0 |
| 20260906201022 | 71 | 68 | 2.6 | 7.8 | 0.00 | 0.00 | 0.00 | 48 | 1025.0 |
| 20260906200022 | 70 | 23 | 3.5 | 7.8 | 0.00 | 0.00 | 0.00 | 48 | 1024.7 |
| 20260906195022 | 71 | 45 | 6.1 | 10.4 | 0.00 | 0.00 | 0.00 | 47 | 1025.0 |
| 20260906194022 | 71 | 45 | 4.3 | 10.4 | 0.00 | 0.00 | 0.00 | 47 | 1025.0 |
| 20260906193017 | 71 | 45 | 8.7 | 13.9 | 0.00 | 0.00 | 0.00 | 46 | 1025.0 |
| 20260906192016 | 72 | 45 | 7.8 | 14.8 | 0.00 | 0.00 | 0.00 | 44 | 1025.2 |
| 20260906191022 | 72 | 45 | 7.0 | 14.8 | 0.00 | 0.00 | 0.00 | 44 | 1025.2 |
| 20260906190042 | 72 | 45 | 5.2 | 11.3 | 0.00 | 0.00 | 0.00 | 45 | 1025.4 |
| 20260906185042 | 70 | 45 | 7.8 | 13.0 | 0.00 | 0.00 | 0.00 | 46 | 1025.5 |
| 20260906184020 | 71 | 45 | 6.1 | 10.4 | 0.00 | 0.00 | 0.00 | 45 | 1025.5 |
| 20260906183016 | 71 | 45 | 7.8 | 13.0 | 0.00 | 0.00 | 0.00 | 46 | 1025.6 |
| 20260906182022 | 73 | 45 | 4.3 | 10.4 | 0.00 | 0.00 | 0.00 | 46 | 1026.2 |
| 20260906181016 | 72 | 68 | 4.3 | 12.2 | 0.00 | 0.00 | 0.00 | 46 | 1026.0 |
| 20260906180042 | 73 | 45 | 7.8 | 13.9 | 0.00 | 0.00 | 0.00 | 47 | 1026.3 |
| 20260906175022 | 74 | 45 | 5.2 | 11.3 | 0.00 | 0.00 | 0.00 | 43 | 1026.2 |
| 20260906174022 | 74 | 45 | 5.2 | 11.3 | 0.00 | 0.00 | 0.00 | 42 | 1026.3 |
| 20260906173022 | 74 | 68 | 6.1 | 12.2 | 0.00 | 0.00 | 0.00 | 42 | 1026.4 |
| 20260906172022 | 74 | 68 | 4.3 | 10.4 | 0.00 | 0.00 | 0.00 | 42 | 1026.6 |
| 20260906171022 | 72 | 45 | 5.2 | 12.2 | 0.00 | 0.00 | 0.00 | 44 | 1026.5 |
| 20260906170022 | 73 | 45 | 5.2 | 10.4 | 0.00 | 0.00 | 0.00 | 44 | 1026.5 |
| 20260906165022 | 73 | 45 | 4.3 | 8.7 | 0.00 | 0.00 | 0.00 | 42 | 1026.4 |
| 20260906164022 | 74 | 45 | 5.2 | 9.6 | 0.00 | 0.00 | 0.00 | 38 | 1026.8 |
| 20260906163022 | 74 | 68 | 2.6 | 7.8 | 0.00 | 0.00 | 0.00 | 39 | 1026.7 |
| 20260906162016 | 74 | 45 | 3.5 | 7.8 | 0.00 | 0.00 | 0.00 | 37 | 1026.8 |
| 20260906161022 | 74 | 23 | 3.5 | 7.0 | 0.00 | 0.00 | 0.00 | 36 | 1026.9 |
| 20260906160022 | 74 | 90 | 0.9 | 5.2 | 0.00 | 0.00 | 0.00 | 36 | 1026.9 |
| 20260906155022 | 74 | 90 | 3.5 | 7.8 | 0.00 | 0.00 | 0.00 | 37 | 1026.7 |
| 20260906154022 | 73 | 135 | 1.7 | 4.3 | 0.00 | 0.00 | 0.00 | 37 | 1026.5 |
| 20260906153022 | 72 | 203 | 0.9 | 2.6 | 0.00 | 0.00 | 0.00 | 36 | 1026.5 |
| 20260906152022 | 72 | 180 | 0.9 | 2.6 | 0.00 | 0.00 | 0.00 | 38 | 1026.4 |
| 20260906151016 | 71 | 203 | 1.7 | 3.5 | 0.00 | 0.00 | 0.00 | 38 | 1026.5 |
| 20260906150022 | 69 | 203 | 0.9 | 3.5 | 0.00 | 0.00 | 0.00 | 42 | 1026.4 |
| 20260906145016 | 67 | 203 | 2.6 | 5.2 | 0.00 | 0.00 | 0.00 | 43 | 1026.3 |
| 20260906144022 | 66 | 203 | 2.6 | 5.2 | 0.00 | 0.00 | 0.00 | 45 | 1026.3 |
| 20260906143022 | 64 | 225 | 2.6 | 4.3 | 0.00 | 0.00 | 0.00 | 47 | 1025.9 |
| 20260906142016 | 63 | 203 | 4.3 | 7.8 | 0.00 | 0.00 | 0.00 | 47 | 1026.1 |
| 20260906141022 | 63 | 203 | 3.5 | 6.1 | 0.00 | 0.00 | 0.00 | 47 | 1026.1 |
| 20260906140036 | 62 | 225 | 2.6 | 5.2 | 0.00 | 0.00 | 0.00 | 49 | 1025.8 |
| 20260906135022 | 61 | 203 | 4.3 | 7.0 | 0.00 | 0.00 | 0.00 | 50 | 1025.8 |
| 20260906134042 | 60 | 225 | 5.2 | 10.4 | 0.00 | 0.00 | 0.00 | 51 | 1025.8 |
| 20260906133021 | 59 | 225 | 6.1 | 9.6 | 0.00 | 0.00 | 0.00 | 52 | 1025.4 |
| 20260906132021 | 59 | 225 | 5.2 | 7.0 | 0.00 | 0.00 | 0.00 | 52 | 1025.5 |
| 20260906131016 | 59 | 225 | 4.3 | 6.1 | 0.00 | 0.00 | 0.00 | 52 | 1025.3 |
| 20260906130022 | 60 | 248 | 4.3 | 7.8 | 0.00 | 0.00 | 0.00 | 50 | 1025.5 |
| 20260906125022 | 59 | 270 | 3.5 | 7.8 | 0.00 | 0.00 | 0.00 | 51 | 1025.5 |
| 20260906124056 | 60 | 248 | 3.5 | 6.1 | 0.00 | 0.00 | 0.00 | 50 | 1025.4 |
| 20260906123041 | 60 | 248 | 3.5 | 6.1 | 0.00 | 0.00 | 0.00 | 49 | 1025.2 |
| 20260906122042 | 60 | 225 | 5.2 | 9.6 | 0.00 | 0.00 | 0.00 | 50 | 1025.3 |
| 20260906121016 | 59 | 225 | 5.2 | 8.7 | 0.00 | 0.00 | 0.00 | 51 | 1025.3 |
| 20260906120021 | 58 | 225 | 6.1 | 9.6 | 0.00 | 0.00 | 0.00 | 53 | 1025.2 |
| 20260906115021 | 57 | 225 | 6.1 | 8.7 | 0.00 | 0.00 | 0.00 | 55 | 1025.1 |
| 20260906114021 | 57 | 225 | 7.0 | 9.6 | 0.00 | 0.00 | 0.00 | 56 | 1025.3 |
| 20260906113022 | 57 | 225 | 7.0 | 12.2 | 0.00 | 0.00 | 0.00 | 57 | 1025.1 |
| 20260906112021 | 57 | 225 | 6.1 | 10.4 | 0.00 | 0.00 | 0.00 | 57 | 1025.3 |
| 20260906111016 | 58 | 225 | 6.1 | 9.6 | 0.00 | 0.00 | 0.00 | 56 | 1025.3 |
| 20260906110021 | 58 | 225 | 6.1 | 9.6 | 0.00 | 0.00 | 0.00 | 56 | 1025.4 |
| 20260906105019 | 57 | 225 | 6.1 | 9.6 | 0.00 | 0.00 | 0.00 | 58 | 1025.8 |
| 20260906104016 | 57 | 225 | 5.2 | 8.7 | 0.00 | 0.00 | 0.00 | 58 | 1025.9 |
| 20260906103016 | 58 | 203 | 4.3 | 7.8 | 0.00 | 0.00 | 0.00 | 57 | 1025.7 |
| 20260906102021 | 58 | 203 | 4.3 | 6.1 | 0.00 | 0.00 | 0.00 | 58 | 1026.0 |
| 20260906101016 | 58 | 203 | 4.3 | 7.0 | 0.00 | 0.00 | 0.00 | 59 | 1026.0 |
| 20260906100016 | 59 | 203 | 4.3 | 7.0 | 0.00 | 0.00 | 0.00 | 58 | 1026.0 |
| 20260906095022 | 59 | 225 | 3.5 | 5.2 | 0.00 | 0.00 | 0.00 | 58 | 1025.7 |
| 20260906094021 | 59 | 180 | 2.6 | 6.1 | 0.00 | 0.00 | 0.00 | 58 | 1026.0 |
| 20260906093021 | 59 | 225 | 6.1 | 12.2 | 0.00 | 0.00 | 0.00 | 58 | 1026.1 |
| 20260906092016 | 59 | 225 | 5.2 | 10.4 | 0.00 | 0.00 | 0.00 | 58 | 1026.1 |
| 20260906091022 | 59 | 248 | 4.3 | 8.7 | 0.00 | 0.00 | 0.00 | 58 | 1025.9 |
| 20260906090021 | 59 | 225 | 4.3 | 9.6 | 0.00 | 0.00 | 0.00 | 58 | 1025.9 |
| 20260906085021 | 59 | 225 | 6.1 | 13.0 | 0.00 | 0.00 | 0.00 | 59 | 1025.7 |
| 20260906084021 | 59 | 248 | 4.3 | 8.7 | 0.00 | 0.00 | 0.00 | 61 | 1025.6 |
| 20260906083042 | 58 | 225 | 3.5 | 7.0 | 0.00 | 0.00 | 0.00 | 62 | 1025.6 |
| 20260906082036 | 59 | 225 | 3.5 | 6.1 | 0.00 | 0.00 | 0.00 | 62 | 1025.6 |
| 20260906081021 | 59 | 225 | 1.7 | 3.5 | 0.00 | 0.00 | 0.00 | 61 | 1025.9 |
| 20260906080021 | 60 | 248 | 3.5 | 7.0 | 0.00 | 0.00 | 0.00 | 61 | 1026.0 |
| 20260906075021 | 60 | 225 | 5.2 | 7.8 | 0.00 | 0.00 | 0.00 | 61 | 1025.9 |
| 20260906074016 | 59 | 225 | 5.2 | 8.7 | 0.00 | 0.00 | 0.00 | 62 | 1026.0 |
| 20260906073021 | 59 | 225 | 4.3 | 7.8 | 0.00 | 0.00 | 0.00 | 64 | 1025.9 |
| 20260906072021 | 59 | 225 | 5.2 | 11.3 | 0.00 | 0.00 | 0.00 | 64 | 1026.2 |
| 20260906071021 | 60 | 225 | 5.2 | 8.7 | 0.00 | 0.00 | 0.00 | 63 | 1026.2 |
| 20260906070021 | 60 | 225 | 5.2 | 12.2 | 0.00 | 0.00 | 0.00 | 62 | 1026.1 |
| 20260906065041 | 60 | 225 | 4.3 | 8.7 | 0.00 | 0.00 | 0.00 | 60 | 1026.1 |
| 20260906064016 | 61 | 225 | 5.2 | 8.7 | 0.00 | 0.00 | 0.00 | 60 | 1026.2 |
| 20260906063016 | 61 | 225 | 5.2 | 10.4 | 0.00 | 0.00 | 0.00 | 59 | 1026.2 |
| 20260906062015 | 62 | 225 | 2.6 | 7.8 | 0.00 | 0.00 | 0.00 | 56 | 1026.7 |
| 20260906061016 | 63 | 225 | 2.6 | 7.0 | 0.00 | 0.00 | 0.00 | 54 | 1026.8 |
| 20260906060016 | 63 | 225 | 2.6 | 5.2 | 0.00 | 0.00 | 0.00 | 53 | 1026.9 |
| 20260906055021 | 63 | 203 | 0.9 | 3.5 | 0.00 | 0.00 | 0.00 | 52 | 1027.4 |
| 20260906054021 | 63 | 203 | 1.7 | 4.3 | 0.00 | 0.00 | 0.00 | 53 | 1027.6 |
| 20260906053021 | 63 | 180 | 2.6 | 6.1 | 0.00 | 0.00 | 0.00 | 53 | 1027.6 |
| 20260906052015 | 63 | 225 | 3.5 | 7.8 | 0.00 | 0.00 | 0.00 | 53 | 1027.2 |
| 20260906051015 | 63 | 225 | 4.3 | 8.7 | 0.00 | 0.00 | 0.00 | 54 | 1027.2 |
| 20260906050041 | 63 | 225 | 6.1 | 10.4 | 0.00 | 0.00 | 0.00 | 55 | 1027.1 |
| 20260906045035 | 62 | 225 | 5.2 | 11.3 | 0.00 | 0.00 | 0.00 | 58 | 1027.2 |
| 20260906044015 | 62 | 225 | 5.2 | 11.3 | 0.00 | 0.00 | 0.00 | 58 | 1027.1 |
| 20260906043015 | 62 | 225 | 6.1 | 10.4 | 0.00 | 0.00 | 0.00 | 58 | 1027.1 |
| 20260906042021 | 63 | 203 | 6.1 | 8.7 | 0.00 | 0.00 | 0.00 | 56 | 1026.8 |
| 20260906041015 | 64 | 248 | 3.5 | 7.0 | 0.00 | 0.00 | 0.00 | 53 | 1026.8 |
| 20260906040015 | 63 | 225 | 6.1 | 11.3 | 0.00 | 0.00 | 0.00 | 54 | 1026.9 |
| 20260906035041 | 63 | 225 | 8.7 | 14.8 | 0.00 | 0.00 | 0.00 | 51 | 1026.8 |
| 20260906034021 | 62 | 225 | 5.2 | 12.2 | 0.00 | 0.00 | 0.00 | 52 | 1026.7 |
| 20260906033041 | 62 | 225 | 6.1 | 10.4 | 0.00 | 0.00 | 0.00 | 51 | 1026.3 |
| 20260906032041 | 63 | 225 | 5.2 | 9.6 | 0.00 | 0.00 | 0.00 | 51 | 1025.8 |
| 20260906031021 | 62 | 225 | 6.1 | 9.6 | 0.00 | 0.00 | 0.00 | 51 | 1025.8 |
| 20260906030015 | 62 | 225 | 6.1 | 11.3 | 0.00 | 0.00 | 0.00 | 54 | 1025.8 |
| 20260906025015 | 61 | 225 | 5.2 | 8.7 | 0.00 | 0.00 | 0.00 | 56 | 1025.6 |
| 20260906024021 | 62 | 225 | 4.3 | 7.0 | 0.00 | 0.00 | 0.00 | 54 | 1025.6 |
| 20260906023035 | 63 | 225 | 4.3 | 7.0 | 0.00 | 0.00 | 0.00 | 52 | 1025.7 |
| 20260906022021 | 64 | 225 | 3.5 | 7.0 | 0.00 | 0.00 | 0.00 | 51 | 1025.6 |
| 20260906021020 | 65 | 225 | 4.3 | 9.6 | 0.00 | 0.00 | 0.00 | 51 | 1025.5 |
| 20260906020015 | 65 | 225 | 3.5 | 6.1 | 0.00 | 0.00 | 0.00 | 49 | 1025.5 |
| 20260906015021 | 65 | 203 | 2.6 | 7.0 | 0.00 | 0.00 | 0.00 | 49 | 1025.2 |
| 20260906014015 | 65 | 225 | 4.3 | 8.7 | 0.00 | 0.00 | 0.00 | 51 | 1025.4 |
| 20260906013021 | 65 | 225 | 3.5 | 7.0 | 0.00 | 0.00 | 0.00 | 53 | 1025.4 |
| 20260906012020 | 67 | 225 | 4.3 | 9.6 | 0.00 | 0.00 | 0.00 | 48 | 1025.4 |
| 20260906011015 | 67 | 270 | 9.6 | 11.3 | 0.00 | 0.00 | 0.00 | 45 | 1025.3 |
| 20260906010015 | 68 | 293 | 10.4 | 13.9 | 0.00 | 0.00 | 0.00 | 41 | 1025.3 |
| 20260906005020 | 66 | 203 | 3.5 | 5.2 | 0.00 | 0.00 | 0.00 | 48 | 1025.3 |
| 20260906004101 | 67 | 225 | 3.5 | 7.0 | 0.00 | 0.00 | 0.00 | 46 | 1025.4 |
| 20260906003020 | 68 | 225 | 2.6 | 5.2 | 0.00 | 0.00 | 0.00 | 45 | 1025.5 |
| 20260906002015 | 70 | 225 | 1.7 | 3.5 | 0.00 | 0.00 | 0.00 | 43 | 1025.6 |
| 20260906001021 | 69 | 270 | 2.6 | 6.1 | 0.00 | 0.00 | 0.00 | 40 | 1025.4 |
| 20260906000040 | 69 | 293 | 5.2 | 9.6 | 0.00 | 0.00 | 0.00 | 40 | 1025.5 |
| 20260905235015 | 69 | 315 | 4.3 | 7.8 | 0.00 | 0.00 | 0.00 | 40 | 1025.4 |
| 20260905234020 | 68 | 293 | 10.4 | 14.8 | 0.00 | 0.00 | 0.00 | 42 | 1025.4 |
| 20260905233040 | 69 | 293 | 10.4 | 20.0 | 0.00 | 0.00 | 0.00 | 42 | 1025.3 |
| 20260905232020 | 70 | 270 | 8.7 | 16.5 | 0.00 | 0.00 | 0.00 | 38 | 1025.6 |
| 20260905231021 | 70 | 45 | 5.2 | 17.4 | 0.00 | 0.00 | 0.00 | 38 | 1025.5 |
| 20260905230020 | 72 | 135 | 4.3 | 7.8 | 0.00 | 0.00 | 0.00 | 34 | 1025.6 |
| 20260905225015 | 74 | 113 | 7.0 | 13.9 | 0.00 | 0.00 | 0.00 | 32 | 1025.6 |
| 20260905224020 | 75 | 90 | 2.6 | 7.0 | 0.00 | 0.00 | 0.00 | 30 | 1025.6 |